Washington County, Minnesota, United States
Lat: 45.02N, Lon: 92.88W
Wx Zone: MNZ063
Local Info
Past Weather Observations for Today

NOTE: This archive is for the closest National Weather Service station to Washington County. Information may differ from the station used for current weather conditions.

Click here for Long-term Archive

Time Weather Temperature Dewpoint Humidity Pressure Winds Precip Visibility
14:16
Overcast
Light Rain
36°F / 2°C 34°F / 1°C 93% 29.62 in
(1003 mb)
SE 8.1 mph
(SE 13 kph)
0.01 in
(0.25 mm)
3SM
13:53
Overcast
Light Rain
36°F / 2°C 34°F / 1°C 93% 29.62 in
(1003 mb)
SE 9.2 mph
(SE 15 kph)
0.02 in
(0.51 mm)
2 1/2SM
13:42
Overcast
Light Rain
36°F / 2°C 34°F / 1°C 93% 29.62 in
(1003 mb)
SE 12.7 mph
(SE 20 kph)
0.02 in
(0.51 mm)
2 1/2SM
13:32
Overcast
Light Rain
36°F / 2°C 34°F / 1°C 93% 29.62 in
(1003 mb)
SE 10.4 mph
(SE 17 kph)
0.02 in
(0.51 mm)
3SM
13:09
Overcast
Light Rain
36°F / 2°C 34°F / 1°C 93% 29.62 in
(1003 mb)
SE 11.5 mph
(SE 19 kph)
0.01 in
(0.25 mm)
2 1/2SM
12:53
Overcast
Fog And Mist
36°F / 2°C 34°F / 1°C 93% 29.62 in
(1003 mb)
ESE 10.4 mph
(ESE 17 kph)
0.00 in
(0.00 mm)
3SM
12:20
Overcast
Light Rain
36°F / 2°C 34°F / 1°C 93% 29.62 in
(1003 mb)
SE 11.5 mph
(SE 19 kph)
0.00 in
(0.00 mm)
3SM
12:05
Overcast
Light Rain
36°F / 2°C 34°F / 1°C 93% 29.65 in
(1004 mb)
SE 10.4 mph
(SE 17 kph)
0.00 in
(0.00 mm)
3SM
11:53
Overcast
Light Rain
36°F / 2°C 34°F / 1°C 93% 29.65 in
(1004 mb)
SE 10.4 mph
(SE 17 kph)
0.02 in
(0.51 mm)
2 1/2SM
10:53
Overcast
Light Rain
36°F / 2°C 34°F / 1°C 93% 29.68 in
(1005 mb)
SE 10.4 mph
(SE 17 kph)
0.00 in
(0.00 mm)
2 1/2SM
09:53
Overcast
Light Rain
36°F / 2°C 34°F / 1°C 93% 29.68 in
(1005 mb)
SE 12.7 mph
(SE 20 kph)
0.01 in
(0.25 mm)
2 1/2SM
08:53
Overcast
Fog And Mist
36°F / 2°C 36°F / 2°C 100% 29.68 in
(1005 mb)
SE 16.1 mph
(SE 26 kph)
0.00 in
(0.00 mm)
2 1/2SM
08:42
Overcast
Light Rain
36°F / 2°C 36°F / 2°C 100% 29.68 in
(1005 mb)
SE 13.8 mph
(SE 22 kph)
0.00 in
(0.00 mm)
2SM
08:18
Overcast
Fog And Mist
36°F / 2°C 36°F / 2°C 100% 29.68 in
(1005 mb)
SE 15 mph
(SE 24 kph)
- 1 3/4SM
07:53
Overcast
Fog And Mist
37°F / 3°C 36°F / 2°C 93% 29.68 in
(1005 mb)
SE 12.7 mph
(SE 20 kph)
- 2 1/2SM
07:33
Overcast
Fog And Mist
37°F / 3°C 36°F / 2°C 93% 29.68 in
(1005 mb)
SE 12.7 mph
(SE 20 kph)
- 2 1/2SM
06:53
Overcast
Fog And Mist
37°F / 3°C 36°F / 2°C 93% 29.68 in
(1005 mb)
SE 13.8 mph
(SE 22 kph)
0.01 in
(0.25 mm)
3SM
06:26
Overcast
Light Rain
37°F / 3°C 36°F / 2°C 93% 29.68 in
(1005 mb)
SE 15 mph
(SE 24 kph)
0.01 in
(0.25 mm)
3SM
06:19
Overcast
Light Rain
37°F / 3°C 36°F / 2°C 93% 29.68 in
(1005 mb)
SE 13.8 mph
(SE 22 kph)
0.01 in
(0.25 mm)
2 1/2SM
05:53
Overcast
Light Rain
37°F / 3°C 36°F / 2°C 93% 29.68 in
(1005 mb)
SE 15 mph
(SE 24 kph)
0.00 in
(0.00 mm)
4SM
04:53
Overcast
Fog And Mist
37°F / 3°C 36°F / 2°C 93% 29.68 in
(1005 mb)
SE 12.7 mph
(SE 20 kph)
- 6SM
04:31
Overcast
Fog And Mist
37°F / 3°C 36°F / 2°C 93% 29.68 in
(1005 mb)
SSE 11.5 mph
(SSE 19 kph)
- 6SM
04:07
Overcast
Fog And Mist
37°F / 3°C 36°F / 2°C 93% 29.71 in
(1006 mb)
SE 17.3 mph
(SE 28 kph)
- 6SM
03:53
Overcast
Fog And Mist
37°F / 3°C 36°F / 2°C 93% 29.71 in
(1006 mb)
SSE 15 mph
(SSE 24 kph)
0.00 in
(0.00 mm)
6SM
03:03
Overcast
Fog And Mist
37°F / 3°C 36°F / 2°C 93% 29.71 in
(1006 mb)
SSE 13.8 mph
(SSE 22 kph)
0.00 in
(0.00 mm)
4SM
02:53
Overcast
Unknown Precip
37°F / 3°C 36°F / 2°C 93% 29.71 in
(1006 mb)
SSE 15 mph
(SSE 24 kph)
0.01 in
(0.25 mm)
2 1/2SM
02:38
Overcast
Unknown Precip
37°F / 3°C 36°F / 2°C 93% 29.71 in
(1006 mb)
SSE 13.8 mph
(SSE 22 kph)
0.01 in
(0.25 mm)
2SM
02:24
Overcast
Fog And Mist
37°F / 3°C 36°F / 2°C 93% 29.71 in
(1006 mb)
SE 9.2 mph
(SE 15 kph)
0.00 in
(0.00 mm)
4SM
01:53
Overcast
Fog And Mist
37°F / 3°C 37°F / 3°C 100% 29.71 in
(1006 mb)
SSE 11.5 mph
(SSE 19 kph)
0.00 in
(0.00 mm)
2 1/2SM
00:53
Overcast
Fog And Mist
37°F / 3°C 37°F / 3°C 100% 29.74 in
(1007 mb)
SSE 15 mph
(SSE 24 kph)
- 4SM
00:38
Overcast
Fog And Mist
37°F / 3°C 37°F / 3°C 100% 29.74 in
(1007 mb)
SSE 11.5 mph
(SSE 19 kph)
- 4SM
Time Weather Temperature Dewpoint Humidity Pressure Winds Precip Visibility


Weather for websites

WeatherForYou.com, LLC is not responsible for any damages or problems caused by this service. Current weather conditions are obtained from the closest station including government and personal stations which may have varying degrees of accuracy. Weather forecasts are derived from the NOAA NDFD. Like all things, this site belongs to Jesus Christ... He just trusts me to maintain it. If you have any questions or comments email webmaster@weatherforyou.com

Copyright © 2014, WeatherForYou.com LLC. All rights reserved.